Location: Chena
(64.8152°N, 147.9227°W)
Time: 08:20:47
(UTC+00:00)

N. Korean satellite - Pass Details

Date: 26 January 2021
Orbit: 451 x 502 km, 97.2° (Epoch: 08 March)

Event Time Altitude Azimuth Distance (km) Brightness Sun altitude
Rises 16:44:08 0° 16° (NNE) 2,542 10.2 -12.6°
Reaches altitude 10° 16:46:17 10° 9° (N) 1,650 9.2 -12.4°
Maximum altitude 16:49:36 39° 300° (WNW) 722 6.9 -12.0°
Drops below altitude 10° 16:52:51 10° 230° (SW) 1,615 8.9 -11.7°
Sets 16:54:57 0° 223° (SW) 2,480 9.9 -11.5°
